Weather History for KLWS - February, 2014

Change the Weather History Date:

Wednesday, February 12, 2014

  Actual Average Record
Temperature  
Mean Temperature 50 °F 38 °F  
Max Temperature 61 °F 46 °F 65 °F (1924)
Min Temperature 38 °F 31 °F -18 °F (1884)
Degree Days  
Heating Degree Days 15 27  
Month to date heating degree days 457 329  
Since 1 July heating degree days 3766 3448  
Cooling Degree Days 0 0  
Month to date cooling degree days 0 0  
Year to date cooling degree days 0 0  
Moisture  
Dew Point 33 °F    
Average Humidity 56    
Maximum Humidity 76    
Minimum Humidity 35    
Precipitation  
Precipitation T in 0.03 in 0.67 in (1938)
Month to date precipitation 0.58 0.34  
Year to date precipitation 1.63 1.42  
Snow  
Snow 0.00 in 0.10 in 2.30 in (1933)
Month to date snowfall 11.5 1.0  
Since 1 July snowfall 14.0 8.7  
Snow Depth 1.00 in    
Sea Level Pressure  
Sea Level Pressure 29.78 in    
Wind  
Wind Speed 13 mph (South)    
Max Wind Speed 30 mph    
Max Gust Speed 38 mph    
Visibility 10 miles    
Events      
T = Trace of Precipitation, MM = Missing Value Source: NWS Daily Summary

Daily Weather History Graph

Daily Weather History Graph

Search for Another Location

Airport or City:

Trip Planner

Search our weather history database for the weather conditions in past years. The results will help you decide how hot, cold, wet, or windy it might be!

Date:

Astronomy

Feb. 12, 2014 Rise Set
Actual Time 6:55 AM PST 5:09 PM PST
Civil Twilight 6:24 AM PST 5:40 PM PST
Nautical Twilight 5:49 AM PST 6:15 PM PST
Astronomical Twilight 5:14 AM PST 6:50 PM PST
Moon 3:24 PM PST (2/12) 5:18 AM PST (2/12)
Length of Visible Light 11h 15m
Length of Day
10h 13m
Waxing Gibbous, 96% of the Moon is Illuminated
Feb 12
Waxing Gibbous
Feb 14
Full
Feb 22
Last Quarter
Mar 1
New
Mar 8
First Quarter

Hourly Weather History & Observations

Time (PST) Temp. Windchill Dew Point Humidity Pressure Visibility Wind Dir Wind Speed Gust Speed Precip Events Conditions
12:56 AM 39.0 °F 32.8 °F 30.0 °F 70% 29.88 in 10.0 mi East 9.2 mph - N/A   Overcast
1:56 AM 39.0 °F 34.8 °F 30.0 °F 70% 29.83 in 10.0 mi ESE 5.8 mph - N/A   Overcast
2:56 AM 37.9 °F 33.5 °F 30.9 °F 76% 29.79 in 10.0 mi ESE 5.8 mph - 0.00 in   Overcast
3:56 AM 39.9 °F 34.5 °F 32.0 °F 73% 29.76 in 10.0 mi SSE 8.1 mph 23.0 mph 0.00 in   Overcast
4:56 AM 42.1 °F 32.6 °F 32.0 °F 67% 29.72 in 10.0 mi South 23.0 mph 28.8 mph N/A   Overcast
5:56 AM 45.0 °F 35.4 °F 34.0 °F 65% 29.68 in 10.0 mi South 28.8 mph 36.8 mph N/A   Mostly Cloudy
6:56 AM 46.9 °F - 35.1 °F 63% 29.66 in 10.0 mi SSW 21.9 mph 26.5 mph N/A   Clear
7:56 AM 48.9 °F - 36.0 °F 61% 29.68 in 10.0 mi South 19.6 mph - N/A   Mostly Cloudy
8:56 AM 48.9 °F - 36.0 °F 61% 29.71 in 10.0 mi South 20.7 mph 29.9 mph N/A   Mostly Cloudy
9:56 AM 52.0 °F - 37.0 °F 57% 29.73 in 10.0 mi South 15.0 mph - N/A   Clear
10:56 AM 55.0 °F - 39.0 °F 55% 29.75 in 10.0 mi South 13.8 mph - N/A   Partly Cloudy
11:56 AM 59.0 °F - 37.9 °F 46% 29.76 in 10.0 mi SW 23.0 mph 31.1 mph N/A   Clear
12:56 PM 60.1 °F - 32.0 °F 35% 29.75 in 10.0 mi West 19.6 mph 33.4 mph N/A   Clear
1:56 PM 59.0 °F - 32.0 °F 36% 29.77 in 10.0 mi West 23.0 mph 27.6 mph N/A   Clear
2:56 PM 57.9 °F - 30.9 °F 36% 29.79 in 10.0 mi West 20.7 mph 33.4 mph N/A   Clear
3:56 PM 57.0 °F - 30.0 °F 36% 29.81 in 10.0 mi WNW 11.5 mph 20.7 mph N/A   Clear
4:56 PM 53.1 °F - 33.1 °F 47% 29.81 in 10.0 mi WNW 9.2 mph - N/A   Clear
5:56 PM 50.0 °F - 33.1 °F 52% 29.83 in 10.0 mi Calm Calm - N/A   Clear
6:56 PM 48.0 °F - 34.0 °F 58% 29.84 in 10.0 mi ESE 6.9 mph - N/A   Clear
7:56 PM 46.0 °F - 34.0 °F 63% 29.83 in 10.0 mi Calm Calm - N/A   Clear
8:56 PM 44.1 °F 42.5 °F 33.1 °F 65% 29.82 in 10.0 mi SSE 3.5 mph - N/A   Clear
9:56 PM 44.1 °F - 34.0 °F 68% 29.81 in 10.0 mi Calm Calm - N/A   Overcast
10:56 PM 43.0 °F - 34.0 °F 71% 29.81 in 10.0 mi Calm Calm - 0.00 in   Mostly Cloudy
11:56 PM 41.0 °F - 33.1 °F 73% 29.81 in 10.0 mi North - - N/A   Partly Cloudy